This demonstration page uses our WeatherBlox Daily Observations layout. Learn more.

Left ArrowRight Arrow

36.17497, -115.13722

Hourly Observations for November 15, 2020

Temp ( °F °C ) Dew Point ( °F °C ) Humidity (%) Winds ( mph kmh ) Pressure ( in mb ) Visibility ( mi km ) Precip ( " mm )
12:53 am 00:53 Clear 50 10 21 -6.1 32 32 NW 5 7 30.24 1024 10 16 0.00 0.00
1:53 am 01:53 Clear 49 9.4 21 -6.1 33 33 Calm 30.24 1024 10 16 0.00 0.00
2:53 am 02:53 Clear 46 7.8 22 -5.6 38 38 Calm 30.24 1024 10 16 0.00 0.00
3:53 am 03:53 Clear 45 7.2 22 -5.6 40 40 NNW 3 6 30.25 1024 10 16 0.00 0.00
4:53 am 04:53 Clear 45 7.2 23 -5 42 42 NW 7 11 30.27 1025 10 16 0.00 0.00
5:53 am 05:53 Clear 47 8.3 22 -5.6 37 37 W 3 6 30.27 1025 10 16 0.00 0.00
6:53 am 06:53 Sunny 45 7.2 21 -6.1 39 39 NW 3 6 30.29 1026 10 16 0.00 0.00
7:53 am 07:53 Sunny 53 11.7 19 -7.2 26 26 Calm 30.31 1026 10 16 0.00 0.00
8:53 am 08:53 Sunny 56 13.3 22 -5.6 27 27 Calm 30.32 1027 10 16 0.00 0.00
9:53 am 09:53 Sunny 59 15 21 -6.1 23 23 Calm 30.33 1027 10 16 0.00 0.00
10:53 am 10:53 Sunny 63 17.2 20 -6.7 19 19 Calm 30.30 1026 10 16 0.00 0.00
11:53 am 11:53 Sunny 64 17.8 18 -7.8 17 17 SE 5 7 30.27 1025 10 16 0.00 0.00
12:53 pm 12:53 Sunny 67 19.4 17 -8.3 15 15 VRB 3 6 30.24 1024 10 16 0.00 0.00
1:53 pm 13:53 Sunny 69 20.6 17 -8.3 14 14 Calm 30.22 1023 10 16 0.00 0.00
2:53 pm 14:53 Sunny 68 20 16 -8.9 13 13 Calm 30.20 1023 10 16 0.00 0.00
3:53 pm 15:53 Sunny 70 21.1 16 -8.9 12 12 Calm 30.19 1023 10 16 0.00 0.00
4:53 pm 16:53 Clear 65 18.3 16 -8.9 15 15 NW 5 7 30.20 1023 10 16 0.00 0.00
5:53 pm 17:53 Clear 62 16.7 20 -6.7 20 20 WNW 5 7 30.22 1023 10 16 0.00 0.00
6:53 pm 18:53 Clear 58 14.4 22 -5.6 25 25 W 6 9 30.24 1024 10 16 0.00 0.00
7:53 pm 19:53 Clear 55 12.8 23 -5 29 29 NW 6 9 30.24 1024 10 16 0.00 0.00
8:53 pm 20:53 Clear 54 12.2 22 -5.6 29 29 NW 5 7 30.25 1024 10 16 0.00 0.00
9:53 pm 21:53 Clear 53 11.7 20 -6.7 27 27 WNW 5 7 30.26 1025 10 16 0.00 0.00
10:53 pm 22:53 Clear 52 11.1 22 -5.6 31 31 WNW 8 13 30.25 1025 10 16 0.00 0.00
11:53 pm 23:53 Clear 52 11.1 20 -6.7 28 28 NW 6 9 30.25 1025 10 16 0.00 0.00

Powered by AerisWeather